GFSSW_700_rhum_108.txt.gz
RH
72 63 57 47 35 18 14 10 14 70 93 78 85 100 95 60 59 58 56 48 46 46 45 30 20 19 19 19 19 21 22 17 15 14 14 12 12 12 27 28 27 40 41 38 38
98 97 97 87 59 29 15 10 9 46 66 98 81 100 97 74 51 81 62 63 57 52 46 29 21 19 16 15 17 16 18 18 15 15 19 13 15 11 17 39 31 38 40 37 36
97 95 95 96 97 95 34 11 8 14 88 73 68 100 79 85 83 78 70 51 39 46 33 21 22 21 17 14 14 16 16 15 14 16 19 14 13 15 10 13 34 32 38 36 36
90 89 92 93 89 95 95 81 16 8 11 64 87 66 89 83 89 63 59 51 35 25 26 29 26 19 17 16 16 19 19 19 20 21 21 20 20 14 17 11 12 32 34 36 38
91 88 82 82 91 87 88 92 82 20 8 16 77 60 98 91 96 82 69 78 65 39 39 32 22 20 23 22 25 27 25 29 24 20 18 20 20 20 15 17 15 12 26 34 36
73 94 80 84 82 93 95 85 74 69 38 38 58 77 99 99 98 72 75 73 58 53 41 27 22 22 27 28 31 28 30 29 29 30 36 30 28 46 20 22 19 15 12 19 34
72 81 75 98 89 87 92 74 62 52 44 96 98 96 99 98 91 77 82 77 66 47 32 24 24 26 30 35 33 29 28 38 35 49 38 69 47 25 46 68 62 26 14 12 18
73 72 85 99 92 91 87 62 49 37 43 98 87 82 98 98 100 94 93 83 61 42 27 27 29 37 40 41 37 42 45 45 44 56 61 77 58 39 48 64 71 62 29 18 20
86 86 71 77 93 97 90 52 51 26 39 97 97 78 97 92 95 100 98 73 56 31 30 30 36 42 47 48 48 56 64 70 60 56 56 70 60 32 53 75 63 58 38 26 18
95 97 98 88 92 100 71 97 84 45 92 93 92 97 99 96 93 98 78 68 44 35 46 36 36 53 58 67 63 73 80 62 58 49 58 60 44 46 51 53 41 32 35 30 23
88 94 96 97 97 87 89 78 96 98 98 98 98 98 92 97 97 90 84 61 44 75 72 57 53 47 76 88 90 82 82 83 60 55 67 46 50 49 51 45 33 39 73 54 26
80 90 90 85 80 84 80 90 98 98 98 98 93 95 96 97 78 54 40 41 36 47 50 66 51 71 88 85 90 97 90 73 62 74 95 65 52 53 50 48 39 48 91 59 54
65 77 76 80 78 85 68 55 86 98 97 98 96 97 98 98 92 77 50 35 46 46 52 71 62 77 73 75 99 100 100 78 90 85 85 81 76 53 47 49 51 60 71 59 69
73 87 84 73 68 72 48 59 96 85 95 97 97 98 98 96 88 47 40 53 66 53 69 78 81 84 90 86 100 100 100 98 99 96 98 97 92 74 66 58 47 66 61 54 65
76 74 80 84 88 87 37 42 75 92 93 98 97 94 96 94 72 46 36 41 48 71 84 68 85 99 99 86 98 96 100 92 88 93 99 100 99 74 87 77 71 58 57 59 62
66 62 68 70 71 78 43 29 57 83 96 98 95 98 85 82 70 40 29 37 34 45 73 66 79 82 74 90 98 92 93 86 93 100 99 95 98 94 97 98 76 63 66 60 73
66 70 49 46 62 66 68 62 79 92 96 98 93 86 66 54 30 27 32 50 75 88 95 93 87 80 92 94 89 98 98 93 94 98 95 99 99 95 98 100 92 79 70 79 95
40 39 36 44 52 68 87 80 88 96 84 80 81 79 87 88 59 50 67 86 92 94 97 98 90 98 99 98 99 100 100 98 96 97 97 96 97 97 100 86 89 86 90 98 99
23 54 63 63 68 74 78 82 96 98 98 96 99 92 96 81 69 84 89 96 100 96 95 100 95 95 96 94 97 98 99 99 98 97 98 96 97 97 99 99 98 99 99 99 99
18 38 53 67 64 60 58 90 87 82 85 85 83 68 80 80 81 86 86 98 98 98 95 96 96 94 90 86 96 97 96 98 98 97 96 86 98 98 98 99 99 99 99 99 100
19 35 62 66 64 62 81 98 100 93 87 82 65 64 87 96 87 91 90 94 96 98 96 98 98 93 86 82 82 92 97 95 96 90 96 95 98 98 99 99 99 99 99 99 100
20 51 64 65 61 62 84 91 90 76 79 83 75 84 89 90 97 97 95 94 97 97 96 92 85 86 74 68 72 85 84 83 65 87 79 96 98 98 98 99 99 100 99 96 100
37 58 61 54 56 63 67 73 75 75 71 74 88 91 92 88 84 84 89 88 88 89 91 86 75 82 70 58 68 71 58 58 64 61 88 89 98 98 98 99 97 91 76 63 61
55 62 59 50 54 66 71 64 66 69 84 86 86 88 84 78 74 89 88 85 76 80 79 79 84 82 82 86 80 68 54 46 52 63 76 85 93 91 81 73 69 68 66 65 64
58 58 60 61 62 65 65 65 54 67 82 74 82 80 73 78 76 78 74 64 65 61 60 64 68 73 73 70 74 70 64 58 48 58 61 68 74 74 72 68 64 64 63 62 60
66 69 65 47 54 63 63 66 53 52 65 66 67 72 76 55 58 60 60 52 46 54 57 63 66 59 57 56 69 69 65 58 53 55 58 64 69 70 66 64 62 61 62 60 59
60 64 65 60 50 58 61 64 66 56 57 58 56 53 60 51 52 50 42 49 47 46 46 47 48 49 48 54 54 56 63 56 56 54 50 56 58 63 61 60 59 60 61 61 63

GFSSW_700_rhum_111.txt.gz
RH
98 98 98 98 95 69 38 17 14 68 88 89 96 89 88 91 95 56 45 40 40 40 40 39 40 30 21 18 17 16 17 16 15 14 14 13 12 11 9 8 8 14 35 42 43
91 97 97 97 97 97 95 40 12 12 50 98 76 99 90 85 90 70 56 54 62 58 53 51 41 27 21 19 19 19 18 20 18 17 15 12 12 11 12 10 8 11 12 38 43
96 91 94 94 93 92 92 94 36 10 12 41 78 98 90 100 97 80 54 69 64 54 48 49 36 24 19 19 19 19 20 20 19 17 15 12 11 11 10 9 10 11 15 27 43
72 81 83 89 93 91 88 85 95 49 9 31 66 96 84 99 96 70 70 60 50 46 41 34 24 25 25 20 18 19 17 16 17 17 16 15 13 11 11 10 9 8 10 24 39
95 99 82 75 87 79 86 70 82 95 34 20 96 99 99 85 94 82 74 68 49 33 29 30 33 30 24 21 20 18 19 19 17 16 16 16 15 16 9 13 11 8 8 9 28
76 74 71 78 77 77 84 70 83 83 88 27 38 76 92 93 99 99 96 85 74 71 50 45 37 28 25 22 23 24 20 18 16 16 22 17 17 19 13 24 19 12 9 9 10
65 75 58 61 64 73 84 84 81 74 84 52 71 98 85 85 98 99 94 86 76 65 54 39 28 26 29 27 26 23 20 20 22 26 29 34 27 24 29 38 36 42 26 12 9
74 72 82 71 64 82 88 87 78 67 50 94 94 86 98 95 99 96 95 90 79 69 48 31 27 28 26 28 31 27 29 29 35 39 45 54 31 24 27 36 46 47 39 29 14
77 90 95 80 73 94 91 86 78 56 36 97 98 98 97 98 98 98 100 99 84 62 44 31 29 30 30 35 40 46 46 40 35 42 53 50 38 21 28 48 57 39 38 34 29
81 97 96 98 90 95 96 84 84 49 87 98 98 98 94 97 94 100 99 96 71 56 41 33 32 34 44 44 62 72 73 54 41 44 70 82 35 25 31 56 58 38 36 30 22
81 94 96 98 100 95 85 97 98 85 94 97 97 97 97 98 98 98 97 76 68 53 41 53 45 43 67 74 81 80 89 86 45 60 98 61 69 30 34 43 46 42 34 27 32
78 84 78 89 87 86 82 91 96 97 98 98 96 94 98 97 93 96 88 77 47 54 55 55 44 56 76 90 84 100 100 98 64 70 96 74 52 43 40 43 44 41 32 30 39
68 70 60 68 64 59 95 95 97 96 97 98 98 97 99 96 77 61 47 42 38 39 43 43 63 79 76 72 76 86 99 100 100 85 79 98 61 48 49 50 52 42 38 35 31
56 62 61 59 57 46 96 97 92 95 95 98 97 98 96 98 85 73 48 48 40 51 55 52 78 78 86 64 95 95 83 100 99 97 90 100 91 78 60 60 64 55 43 46 52
59 70 72 74 42 49 86 94 87 76 91 94 96 90 97 88 72 52 43 40 43 57 76 73 79 86 92 81 97 88 97 90 96 96 100 99 99 81 77 78 78 74 51 52 54
45 51 70 64 29 31 51 65 76 62 97 94 94 98 90 72 57 29 30 40 43 52 61 60 70 69 64 71 86 90 89 91 100 99 97 95 98 82 92 98 98 74 64 61 67
32 35 38 54 29 40 48 74 70 89 97 98 89 73 76 59 48 35 30 45 82 86 86 82 80 76 82 87 85 94 96 94 87 100 92 98 99 90 99 97 100 70 58 69 68
72 70 69 68 54 48 63 60 83 100 96 89 72 88 85 47 33 47 78 90 89 87 94 94 79 89 95 99 99 98 99 98 96 100 95 98 98 97 100 100 100 82 88 81 97
60 64 54 47 53 58 56 68 92 92 84 82 93 92 89 74 76 84 89 93 96 88 86 100 91 90 96 100 99 98 99 99 98 95 98 97 97 98 100 99 95 92 86 98 99
41 64 56 51 48 40 26 75 89 83 81 78 73 58 65 69 74 77 82 91 95 94 96 96 94 89 94 89 97 98 99 99 98 97 96 97 98 98 98 98 99 99 99 99 98
46 56 55 54 53 39 46 93 99 97 75 72 65 87 90 95 86 90 92 90 95 95 94 92 98 84 85 81 95 98 98 100 100 93 96 95 98 98 98 98 99 99 99 99 99
45 50 61 65 52 65 85 86 77 66 65 75 87 94 97 96 97 97 99 94 97 93 92 92 86 73 66 72 88 97 94 97 98 85 82 96 98 98 98 99 99 99 97 96 92
42 50 56 54 58 65 78 74 72 74 74 90 97 90 86 88 85 94 96 90 84 86 85 76 69 73 61 57 69 78 81 81 88 75 80 88 97 98 97 97 78 72 67 67 63
41 45 50 45 57 61 71 68 81 86 85 83 87 82 74 77 85 88 93 87 77 73 74 74 75 77 80 82 84 78 68 60 78 66 77 78 89 86 78 79 73 70 68 67 65
39 31 38 43 57 55 60 69 75 80 79 77 79 76 71 75 72 71 74 73 69 66 64 65 62 65 67 74 77 74 68 61 64 61 59 65 69 76 73 69 70 70 68 64 62
36 35 33 41 46 54 50 60 67 71 74 74 70 71 66 63 56 53 48 46 53 62 62 60 54 55 57 68 66 66 57 51 51 51 54 68 68 64 65 66 67 71 70 67 66
20 26 28 33 40 47 49 49 53 61 71 75 63 64 64 54 53 51 47 43 44 45 50 53 52 52 44 50 58 50 54 52 51 47 42 48 45 52 58 62 63 65 64 64 63

GFSSW_700_rhum_114.txt.gz
RH
94 90 92 97 98 98 98 93 29 28 63 98 100 90 88 73 69 82 66 51 45 44 44 40 34 29 27 24 20 16 18 16 16 17 17 16 15 14 13 11 9 10 11 18 34
98 94 97 99 97 96 97 97 97 30 37 74 90 82 100 94 92 80 88 55 48 40 41 41 39 38 33 25 21 20 19 19 18 18 18 18 17 15 14 12 12 10 9 9 14
97 97 96 100 97 96 96 96 96 96 34 37 97 99 96 87 99 86 85 65 63 58 57 57 52 44 33 26 23 22 21 20 19 20 19 17 15 14 13 12 11 10 10 10 9
98 97 97 97 94 95 96 98 96 85 92 32 33 98 99 100 99 94 89 76 49 67 62 51 46 42 32 23 21 22 22 21 19 17 17 16 16 14 13 12 11 10 9 9 9
94 94 92 85 93 82 92 95 94 79 87 64 28 38 59 98 98 86 79 77 65 54 56 46 37 30 25 26 26 22 22 20 20 20 18 16 14 12 11 11 10 8 8 8 8
66 66 61 70 49 62 68 83 91 86 89 55 58 73 86 96 98 99 75 85 58 39 35 33 31 31 32 28 27 26 24 22 20 17 14 14 12 12 12 12 10 10 9 8 7
76 67 62 54 60 48 58 72 89 88 89 54 59 98 98 98 98 96 96 90 82 74 67 57 47 41 34 28 27 26 25 22 18 16 20 18 14 13 21 20 18 16 17 16 12
65 77 86 96 70 58 70 78 90 87 78 74 87 97 98 92 90 87 98 94 82 76 65 54 41 33 32 31 29 28 26 22 25 28 33 34 18 21 22 19 20 20 19 25 25
72 70 75 75 75 60 72 91 86 78 77 84 93 97 98 98 91 98 97 97 86 77 66 49 39 37 32 28 27 31 30 26 23 29 30 37 20 23 20 19 15 17 26 25 22
81 78 80 92 79 87 93 90 91 73 79 95 97 98 97 98 98 96 95 84 91 77 53 44 38 33 28 24 35 45 46 40 36 34 51 57 20 24 22 26 21 16 31 32 30
64 69 82 95 92 96 89 95 91 72 97 97 98 98 96 98 98 98 98 95 86 62 52 47 41 38 35 39 53 63 77 89 28 57 60 47 39 25 28 35 28 34 33 32 31
67 62 66 87 81 77 92 84 87 95 97 98 97 98 98 98 95 98 98 87 71 58 45 36 35 41 55 64 72 82 69 42 47 65 88 76 44 31 33 36 40 40 39 34 30
73 66 62 58 96 90 91 97 97 97 97 98 98 97 98 97 97 96 84 55 47 40 32 30 60 61 65 70 69 67 68 60 92 95 96 93 60 48 52 56 54 54 48 45 34
67 70 60 59 87 94 92 96 94 87 90 98 96 97 96 88 81 57 47 50 38 42 31 33 40 59 74 64 86 82 78 97 100 94 92 88 89 76 66 70 79 83 72 50 39
57 42 39 83 87 91 94 81 71 63 87 94 97 96 96 88 76 65 53 46 44 34 36 53 70 72 65 75 87 75 97 85 92 94 100 98 98 70 79 75 84 91 80 58 47
45 30 29 36 65 59 56 52 53 56 96 95 100 98 88 65 52 36 38 39 33 30 39 59 63 55 59 69 79 85 79 80 92 94 99 84 96 77 96 98 94 100 88 67 59
47 41 32 32 42 56 63 54 59 92 97 93 85 75 67 48 31 29 29 37 70 78 83 76 71 77 83 76 80 89 94 91 85 99 92 89 99 98 97 100 100 100 99 68 58
39 41 40 34 39 56 50 53 83 99 100 72 74 47 32 26 30 58 78 84 85 82 93 96 77 73 81 93 94 92 98 98 97 98 92 90 97 93 99 100 99 100 98 70 68
43 42 44 52 54 53 46 57 100 85 68 80 78 64 59 58 72 86 87 92 95 86 83 98 78 82 87 94 99 98 99 98 98 96 98 94 96 98 98 100 99 99 99 77 95
43 46 44 42 43 40 21 80 88 78 85 84 74 67 74 79 80 83 82 88 94 91 94 98 92 85 90 94 98 99 100 99 98 97 96 96 98 98 97 98 99 98 99 98 98
39 38 54 38 33 25 46 88 92 84 82 84 86 93 95 98 92 85 89 84 89 98 99 98 100 88 90 84 98 98 100 99 99 97 96 94 97 97 98 98 98 98 98 99 99
38 37 48 36 29 48 81 100 87 80 83 90 94 96 96 96 97 100 98 95 95 93 96 97 99 89 73 79 82 82 89 99 98 98 91 94 98 98 97 98 97 97 94 93 91
34 31 35 36 33 43 62 74 79 87 90 92 96 93 92 91 93 97 97 98 96 95 94 91 90 81 61 61 72 81 86 79 98 84 82 85 97 96 96 90 90 86 78 70 66
30 29 33 36 44 44 54 62 78 81 82 84 90 82 78 82 84 83 82 83 81 81 78 81 77 83 83 79 80 79 77 64 93 81 84 83 90 79 77 79 78 76 75 72 67
20 21 27 37 40 45 46 61 66 70 75 77 78 68 68 75 70 65 66 71 72 71 69 68 62 62 66 72 73 70 65 63 78 68 65 72 65 68 71 73 75 74 72 70 66
18 18 20 32 38 37 44 49 55 59 67 68 70 66 63 64 60 52 49 50 52 55 57 57 57 50 46 61 63 63 60 59 61 57 53 55 61 67 68 72 72 70 69 68 63
15 16 19 20 23 33 36 37 39 44 54 57 55 59 56 53 52 51 53 51 48 46 48 56 54 51 40 39 43 41 54 54 50 49 50 51 52 55 60 65 67 67 67 66 63

GFSSW_700_rhum_117.txt.gz
RH
93 98 98 95 89 96 98 98 98 71 27 100 91 99 99 98 86 78 67 58 56 53 49 44 34 30 24 20 20 18 18 18 17 17 17 17 18 17 17 16 14 11 10 9 16
63 96 98 98 98 93 97 98 98 99 58 50 99 85 98 91 82 70 78 70 56 51 47 44 41 36 29 26 23 22 21 19 18 18 17 17 18 18 18 16 15 14 13 10 8
63 92 98 98 98 98 98 97 95 91 92 39 98 97 98 99 100 89 80 84 66 55 44 42 40 38 37 36 30 25 22 20 20 20 18 18 18 18 18 17 16 14 13 12 12
93 97 99 98 98 98 98 98 96 89 92 83 44 97 83 91 99 94 86 88 78 68 66 59 55 50 46 39 32 26 23 22 21 21 20 19 17 17 16 15 15 14 13 12 12
78 74 80 96 96 96 94 97 97 94 91 93 64 92 99 98 98 86 92 83 78 59 67 61 55 50 42 36 30 24 23 23 23 21 20 19 18 16 12 13 12 11 11 11 10
61 66 63 62 60 77 83 85 97 97 90 90 67 63 87 99 98 97 99 97 90 68 56 58 48 36 31 28 26 25 27 26 23 22 21 19 17 15 12 12 11 11 10 9 9
66 68 64 60 56 41 40 59 89 94 85 91 58 99 92 97 96 97 99 76 56 43 40 39 36 32 30 31 31 31 28 25 23 21 18 17 14 13 14 13 15 16 14 12 11
68 78 70 58 75 62 52 51 71 94 85 78 97 98 100 78 86 98 96 84 81 71 64 59 54 46 41 35 31 29 27 25 25 23 22 20 16 16 17 17 16 15 14 13 12
89 92 79 71 85 70 71 66 85 83 73 84 67 98 96 98 98 98 99 96 87 66 62 60 52 41 38 37 33 29 28 25 23 20 18 19 14 13 18 16 12 11 10 10 11
67 86 96 91 81 72 86 89 93 78 79 93 86 97 98 98 98 91 97 99 95 71 61 58 49 43 38 33 28 27 28 25 20 24 26 22 13 17 21 18 12 12 16 13 11
52 63 88 95 88 90 86 69 70 85 86 94 90 97 95 98 98 98 95 83 78 79 60 53 45 37 32 27 24 28 30 27 26 30 27 30 20 20 28 21 17 20 20 18 17
49 59 90 84 77 67 61 74 85 97 98 97 97 97 98 98 93 98 95 87 83 64 54 42 31 29 27 29 32 32 39 32 38 50 73 65 26 31 38 40 41 35 34 34 30
59 60 78 90 88 78 88 93 96 94 94 98 98 98 98 97 96 94 93 80 59 43 32 25 39 30 34 41 42 43 51 55 78 75 76 78 56 45 52 62 63 59 52 50 43
68 64 76 81 88 91 89 90 87 82 89 97 96 97 97 97 93 78 55 51 42 30 27 26 25 28 36 50 62 55 64 72 82 96 96 89 90 70 57 66 73 76 74 66 63
68 65 71 70 72 73 64 63 63 59 88 94 97 96 92 83 66 56 52 41 32 30 32 46 52 57 58 67 65 64 74 79 92 99 100 98 100 64 70 71 90 96 99 98 73
28 40 54 59 62 65 52 51 52 58 96 96 98 87 75 64 56 39 37 34 26 29 40 53 55 51 54 65 76 83 80 87 96 98 98 81 93 76 94 98 98 99 94 97 88
42 33 34 36 51 51 49 50 54 90 98 89 82 68 36 31 30 31 30 48 61 70 76 74 69 69 78 84 83 89 87 91 82 97 89 78 99 98 93 98 99 100 100 99 85
48 48 50 50 51 51 49 51 81 93 71 58 52 36 30 34 49 64 74 78 74 82 82 79 65 74 85 90 93 88 89 99 97 92 86 85 94 97 94 100 99 100 100 99 100
43 30 30 37 37 35 33 50 93 80 80 75 58 56 52 60 76 82 78 77 79 89 91 99 83 84 88 93 94 98 99 98 98 100 99 92 97 92 98 100 97 99 98 99 97
30 25 22 23 19 20 20 54 80 78 77 71 64 67 71 74 70 72 78 93 100 100 99 99 93 84 88 93 97 100 99 98 98 98 92 84 98 97 91 98 99 98 98 99 98
23 18 22 24 31 34 45 74 80 83 84 85 85 93 97 95 99 94 97 97 100 98 99 98 96 79 88 86 97 97 98 99 98 98 94 92 94 98 100 98 98 98 97 97 98
17 19 20 23 28 36 62 76 84 88 92 94 91 84 90 92 95 96 97 98 97 96 96 94 97 92 75 84 88 88 95 95 98 98 97 99 98 97 96 96 96 92 85 88 88
16 18 23 25 31 39 60 75 88 83 79 85 88 87 80 82 87 89 88 87 86 85 84 85 88 86 63 70 80 83 86 88 91 100 86 85 96 97 96 92 84 80 75 67 67
15 21 25 27 30 38 47 60 70 80 78 69 74 75 75 79 77 75 79 78 78 80 78 77 73 76 80 72 74 72 80 67 86 96 79 78 86 94 76 76 78 76 73 67 59
13 17 24 28 30 34 38 46 54 61 68 68 61 54 55 60 59 55 57 62 68 70 74 77 64 60 55 63 66 66 68 68 72 75 70 70 66 63 70 72 76 76 74 69 60
10 13 17 25 30 32 33 37 44 50 56 56 57 54 48 41 39 37 37 41 46 56 61 66 65 54 35 43 50 45 58 59 65 66 57 63 58 60 61 62 67 69 71 73 67
10 10 12 15 19 28 30 32 33 36 46 49 48 46 43 42 42 39 36 36 34 35 39 46 50 53 41 36 33 33 28 50 52 48 47 48 45 50 54 54 57 61 62 60 61

GFSSW_700_rhum_120.txt.gz
RH
82 88 79 97 98 92 89 98 100 88 42 98 100 99 84 76 87 67 60 54 50 51 42 26 23 20 17 16 16 16 15 22 18 19 18 18 17 17 17 17 17 15 12 10 9
88 85 78 98 97 98 85 99 98 92 79 68 98 92 99 100 96 88 66 55 46 48 50 47 33 27 25 22 20 20 21 20 19 19 18 18 18 17 17 17 16 16 16 14 12
72 79 84 94 98 98 97 93 94 92 94 71 69 86 99 99 95 89 79 70 50 45 46 48 44 38 33 29 26 24 25 23 21 18 17 17 17 17 17 17 17 18 17 15 15
67 76 92 100 93 97 99 100 98 90 80 88 53 98 98 99 98 90 82 70 68 48 45 41 41 39 36 32 34 31 29 24 20 19 18 18 17 16 16 14 16 15 14 14 14
65 78 77 93 96 97 99 97 98 94 80 85 67 92 99 98 97 99 93 77 77 68 50 47 44 46 45 43 40 35 29 23 21 20 20 20 18 17 14 14 13 12 11 10 10
84 62 60 71 80 93 93 97 98 97 81 74 77 56 98 99 100 94 97 88 83 71 55 55 52 50 45 43 33 28 25 24 25 26 25 22 18 15 12 12 12 11 11 10 9
92 46 38 64 67 73 84 97 98 95 78 91 95 94 98 99 99 100 97 93 93 82 57 50 56 47 34 29 27 26 28 28 27 26 22 18 14 13 13 12 12 12 11 12 11
86 80 59 85 92 45 37 68 81 91 72 88 82 80 98 97 97 98 97 91 69 58 47 42 39 34 31 30 30 30 28 27 23 21 19 19 22 15 14 14 13 12 12 12 12
78 90 73 88 74 59 44 60 66 79 69 85 94 93 98 97 98 98 77 72 76 67 60 56 50 43 39 36 34 33 45 26 24 22 20 19 19 15 15 13 12 12 11 10 10
91 94 100 57 54 85 66 68 77 66 76 81 97 98 98 98 96 97 87 94 88 71 57 52 50 42 40 38 41 44 29 24 21 21 19 17 14 14 13 13 12 12 11 10 9
93 75 88 72 69 71 68 72 67 61 77 84 95 95 98 98 97 98 98 91 97 72 59 53 44 42 39 36 32 27 22 21 20 21 20 19 17 18 18 15 17 15 13 12 12
94 85 69 77 74 76 76 64 60 71 95 96 95 96 98 98 96 100 89 79 80 68 60 50 41 37 31 25 24 23 25 47 21 31 38 28 17 18 28 36 41 46 46 36 29
76 69 71 72 89 91 84 89 88 89 96 99 98 98 97 97 96 94 89 82 72 58 46 34 34 25 25 25 26 31 34 52 54 48 58 55 48 46 53 52 57 66 66 60 54
75 78 74 76 79 85 86 89 84 74 84 97 97 98 97 96 94 92 80 68 52 34 27 26 26 23 22 27 35 70 52 60 66 98 90 97 87 80 54 57 66 65 83 68 65
54 63 78 79 68 65 60 59 59 55 82 94 96 95 90 83 70 58 56 48 33 26 31 40 34 32 40 53 57 80 61 76 88 100 100 96 99 80 70 65 72 82 94 98 78
36 35 37 44 55 56 56 53 57 61 93 94 93 85 75 68 59 42 36 30 25 29 35 39 37 35 47 53 59 69 73 88 93 98 96 86 98 86 99 94 82 90 98 91 98
28 40 46 44 51 44 44 49 51 91 94 79 65 39 37 33 31 29 32 49 53 60 57 48 47 49 58 68 74 81 93 87 86 94 74 86 98 92 100 88 97 98 99 99 100
16 19 23 33 39 44 42 37 82 94 66 48 36 31 32 36 46 53 66 73 68 67 70 87 76 69 81 83 95 99 99 94 86 72 70 96 92 97 92 92 100 99 99 100 100
17 16 16 19 20 24 22 31 65 60 42 44 40 44 65 69 74 75 76 82 82 86 96 95 81 78 83 93 94 99 96 93 97 97 95 82 98 91 93 98 98 96 100 100 98
20 18 27 28 19 19 19 47 66 60 59 59 68 65 78 73 75 76 76 91 99 95 84 90 94 83 89 95 97 97 96 98 98 91 80 73 98 98 94 96 97 95 98 98 98
18 20 25 38 40 36 41 75 80 81 78 78 83 89 89 95 93 92 87 88 92 97 92 94 94 80 86 86 89 98 99 99 98 93 76 69 88 83 92 89 84 85 88 92 95
17 21 25 32 38 42 58 70 81 87 86 89 85 85 91 93 87 89 92 91 91 94 95 90 95 95 76 77 87 91 92 97 97 96 99 89 83 80 85 93 97 87 87 79 77
15 20 26 32 38 41 52 60 70 72 74 78 86 84 79 85 89 87 87 85 81 79 80 78 89 95 69 73 79 80 80 87 99 96 97 76 82 79 86 73 67 72 69 64 59
14 17 22 28 32 40 46 50 54 60 58 59 69 69 68 68 67 67 68 67 68 70 76 80 73 68 67 65 69 71 70 78 91 100 81 74 74 75 78 61 67 68 64 58 54
12 16 18 21 26 32 37 40 42 42 46 47 47 49 47 48 47 47 51 58 62 62 64 69 62 56 47 46 51 55 56 68 72 76 84 71 67 72 58 60 66 68 69 66 57
10 13 16 19 22 25 28 34 37 35 33 33 38 38 37 37 36 36 36 41 47 48 54 62 64 58 30 30 41 37 33 43 60 68 67 63 61 50 53 54 56 62 59 60 55
8 10 11 14 17 20 22 24 28 31 36 35 30 30 31 30 31 32 34 34 35 40 49 53 58 60 58 35 36 34 14 21 42 50 51 52 39 43 43 46 52 56 57 54 48

GFSSW_700_rhum_126.txt.gz
RH
76 75 77 78 89 98 90 98 98 98 97 56 58 50 96 97 96 83 77 56 51 41 29 15 12 10 9 9 9 14 23 30 25 26 33 28 18 11 11 11 14 16 19 16 12
81 67 81 90 98 91 98 98 98 98 99 78 39 55 68 93 100 97 69 63 55 49 36 18 14 12 10 10 9 11 14 33 32 31 31 26 20 19 19 18 18 17 17 15 16
80 39 80 96 98 98 97 98 94 84 97 66 42 44 66 79 100 96 80 72 61 53 44 23 18 14 12 11 11 11 23 34 31 30 22 19 18 17 17 16 16 15 15 14 14
60 50 91 98 98 97 98 97 99 98 88 62 46 99 81 99 99 96 90 76 63 56 50 36 25 22 19 17 17 20 20 27 25 24 22 21 18 16 13 13 15 14 14 13 12
70 76 92 97 98 98 98 90 78 82 78 79 95 99 99 99 100 96 94 77 67 59 53 50 42 33 31 27 27 25 25 25 25 25 24 20 16 15 11 13 14 14 13 11 10
87 87 98 97 98 94 94 93 88 81 82 82 91 99 99 99 100 99 96 78 64 58 52 48 44 43 44 39 36 34 34 33 30 27 22 16 15 16 13 12 12 11 11 10 9
74 96 97 93 91 90 80 84 76 69 81 97 98 98 98 98 99 99 100 84 69 53 48 44 41 42 42 38 38 34 30 26 22 18 16 14 12 16 12 13 12 12 12 12 12
61 54 91 90 97 85 79 70 68 88 94 91 93 97 97 99 98 99 99 87 80 70 48 39 37 36 31 31 25 22 21 19 21 16 14 13 12 16 13 13 13 13 13 13 12
60 44 58 77 70 67 57 49 59 79 96 100 92 91 97 98 98 99 98 95 86 75 62 47 42 38 34 27 24 21 40 37 36 20 21 17 15 14 14 14 14 14 13 13 12
52 53 63 68 64 57 51 70 62 62 82 94 96 98 97 97 98 93 95 90 89 78 60 43 38 32 32 30 56 46 32 38 37 34 25 20 16 15 16 15 14 13 14 14 12
56 57 61 65 64 59 51 53 70 78 83 95 98 89 95 94 98 95 82 66 59 53 51 49 43 45 48 34 40 41 39 34 40 46 32 23 20 17 15 14 14 21 22 18 18
46 60 65 67 72 62 56 58 66 77 94 95 95 92 95 96 96 94 73 71 63 56 52 49 46 41 41 36 33 32 31 40 45 46 39 27 28 18 22 24 27 23 30 35 37
39 49 66 68 55 76 78 75 78 72 78 97 98 96 96 92 91 85 74 75 78 66 77 80 60 44 38 32 27 42 36 53 54 38 37 66 38 46 49 42 41 41 48 49 49
46 44 54 69 76 79 74 69 71 69 75 95 87 98 97 94 86 77 76 68 68 62 72 56 40 34 29 32 25 64 65 37 44 69 74 62 75 44 66 65 84 46 53 55 49
32 44 45 46 53 61 59 57 62 64 89 92 90 92 83 78 83 79 71 64 56 47 43 53 30 25 28 63 30 79 50 42 68 94 96 74 91 63 64 62 59 55 54 50 49
17 28 36 39 41 44 49 54 68 72 96 87 80 69 67 71 68 64 49 43 31 28 35 36 29 27 55 36 42 48 52 90 93 94 93 72 79 71 71 60 52 58 55 55 58
18 14 25 33 35 40 43 50 60 91 84 84 68 47 39 34 34 30 40 30 62 79 88 50 40 33 41 60 83 89 85 78 94 86 88 76 82 68 59 58 65 61 60 68 74
29 18 13 20 32 33 32 32 60 84 72 40 49 40 41 45 36 48 78 80 50 68 82 85 84 54 67 74 93 94 92 87 86 89 88 62 80 56 57 62 60 71 84 87 86
36 31 20 11 15 26 29 29 68 45 52 63 67 67 65 54 60 74 67 81 68 65 83 82 85 67 70 79 84 91 93 98 84 76 88 72 64 64 55 59 75 88 83 92 94
32 34 36 27 15 13 13 30 33 25 34 74 68 67 63 65 75 78 79 66 69 69 71 95 88 90 78 84 89 96 95 99 90 95 92 66 74 67 57 64 76 81 74 73 94
23 28 38 41 36 30 28 32 35 43 48 69 81 78 77 87 84 86 85 79 75 69 80 98 94 98 82 81 95 92 84 86 94 87 98 92 67 65 53 64 79 69 54 44 44
22 23 31 34 36 42 48 52 54 54 55 57 58 76 88 79 91 95 93 88 76 79 100 96 96 95 83 93 89 98 82 86 90 99 96 98 72 63 58 63 75 56 43 37 42
14 20 26 32 31 35 43 54 53 53 52 55 61 64 68 91 94 78 80 66 63 62 64 69 94 88 84 82 82 75 68 80 93 97 93 91 70 67 63 60 61 48 45 38 38
12 14 19 25 28 30 32 39 45 51 53 51 50 49 49 60 55 72 76 50 50 51 56 54 52 62 75 68 72 76 81 85 90 95 81 85 60 68 66 54 59 45 42 40 38
9 12 14 19 21 23 24 25 30 35 37 40 39 37 39 61 52 54 39 41 35 41 46 52 43 48 40 32 32 36 46 56 81 70 88 40 67 63 66 57 43 39 42 44 39
34 10 12 13 18 21 20 22 21 21 26 25 29 29 30 30 40 38 36 41 52 37 44 48 47 50 31 34 56 55 35 34 46 56 66 39 33 39 44 42 42 37 41 44 45
26 36 15 11 12 17 19 20 23 22 21 20 24 26 28 28 28 28 31 31 35 38 44 74 80 84 70 38 43 24 13 21 20 20 21 45 17 43 44 38 39 42 42 41 43

GFSSW_700_rhum_129.txt.gz
RH
86 74 60 76 82 74 89 95 66 98 96 96 97 99 99 98 97 89 76 60 49 32 19 15 10 9 9 8 9 15 24 27 26 28 28 28 25 18 17 21 21 28 26 16 14
62 61 81 86 94 98 98 99 97 99 97 84 89 97 98 95 100 91 78 66 53 40 24 16 13 10 9 9 11 19 19 26 28 25 24 25 23 18 14 13 13 14 17 17 18
69 93 96 98 98 98 98 98 96 90 86 89 68 69 85 99 99 97 79 72 58 45 25 16 14 11 10 9 10 14 16 21 27 29 24 23 22 20 19 18 18 18 17 16 16
97 97 98 98 97 98 96 95 79 77 80 94 53 88 72 99 98 94 86 72 64 52 31 19 15 13 12 11 10 11 12 15 25 28 26 22 20 18 15 14 13 12 12 11 11
98 97 97 98 97 96 85 84 87 93 85 89 73 90 80 90 91 83 92 75 68 57 45 23 18 17 15 13 12 14 13 19 23 24 24 22 20 18 12 12 12 12 12 12 12
81 84 87 91 92 94 83 77 82 89 86 97 84 98 80 91 89 86 97 80 69 61 51 30 26 30 24 24 24 24 26 28 28 28 24 21 18 14 11 10 10 10 11 11 11
92 87 81 78 72 76 72 78 85 91 97 84 82 99 99 99 99 99 95 79 65 60 52 46 39 36 34 39 36 35 34 32 29 24 19 15 12 10 10 10 12 12 12 12 12
78 88 77 66 58 60 62 98 98 92 84 91 98 98 98 99 99 100 94 74 64 58 51 48 46 43 40 38 36 35 30 24 18 16 17 14 13 12 11 12 13 13 13 13 14
63 68 65 52 47 49 68 77 83 92 89 91 98 98 97 98 99 99 95 84 73 59 53 49 47 42 34 30 23 21 21 26 23 20 21 18 14 14 14 13 13 14 15 15 14
28 50 50 48 46 47 51 66 85 87 94 97 90 92 98 98 99 100 97 88 80 72 64 54 49 37 33 26 26 36 34 30 35 32 24 18 14 14 16 16 16 16 15 14 13
53 35 37 41 46 52 67 74 80 87 78 98 99 92 96 98 98 96 88 86 79 66 51 45 39 32 31 27 45 44 43 39 42 38 26 22 22 18 18 18 16 15 13 12 14
58 47 41 47 49 66 76 57 72 80 98 98 99 94 97 96 94 89 71 64 57 50 46 42 37 37 39 35 34 41 39 34 33 36 33 27 22 18 15 14 16 20 24 27 36
56 61 47 43 69 75 72 71 74 74 84 96 98 97 97 97 83 72 66 62 59 53 51 45 48 45 41 36 32 30 27 28 40 31 24 22 19 20 25 23 18 22 26 40 47
44 56 58 58 61 60 60 64 63 64 76 94 89 93 93 89 81 80 71 63 62 58 60 56 46 42 36 31 28 38 48 50 39 34 54 44 67 22 27 40 29 32 45 53 53
36 38 42 46 44 46 50 53 53 53 86 81 80 78 78 72 72 69 66 64 57 57 51 42 34 31 27 34 29 36 47 38 54 74 83 52 81 39 36 42 44 57 59 55 49
17 32 32 35 38 42 44 45 49 56 95 69 68 66 66 70 66 64 55 47 40 39 33 31 30 26 30 34 32 33 45 75 89 91 94 74 78 56 48 45 57 62 60 58 56
15 13 22 30 33 35 39 45 46 84 78 62 41 37 43 42 37 37 33 30 34 41 42 33 30 26 28 38 46 53 75 79 83 93 90 76 82 47 51 55 62 58 64 70 70
28 18 11 18 23 25 26 34 46 66 55 37 38 36 32 29 37 39 47 53 45 68 84 82 69 43 52 65 76 87 89 80 91 93 88 75 69 44 51 56 55 64 71 74 77
34 31 22 12 15 24 26 29 36 36 46 62 65 66 45 46 55 56 62 60 53 56 78 81 82 70 68 71 80 96 86 89 98 86 87 70 59 55 53 53 67 74 66 45 51
24 30 35 28 16 13 12 23 27 31 48 60 61 65 66 63 66 76 78 69 62 61 61 73 81 92 82 86 84 94 95 94 90 94 87 72 68 58 59 52 64 49 48 39 35
17 21 30 36 31 25 23 24 28 36 48 52 72 72 64 66 76 74 69 72 65 58 67 86 84 89 84 71 78 86 82 83 87 96 98 100 66 58 60 57 58 62 59 39 34
13 16 22 30 35 34 40 42 48 47 45 51 64 70 79 72 81 78 83 74 70 71 70 88 97 89 81 96 94 88 86 85 83 97 95 98 69 48 60 56 60 56 53 38 34
11 13 14 18 28 37 41 46 51 53 53 52 58 66 69 75 84 73 64 61 59 59 60 67 78 78 88 89 88 88 76 79 93 100 99 86 56 44 44 55 61 52 57 39 38
11 12 13 14 18 24 32 41 43 45 47 48 50 48 55 62 62 73 71 55 44 45 55 57 60 52 59 71 70 77 72 77 87 91 83 64 41 34 52 50 62 55 46 39 38
27 9 12 15 15 16 19 25 32 36 36 35 35 33 31 42 56 65 53 45 45 50 45 47 33 33 29 27 29 31 35 43 81 75 81 35 38 19 28 43 52 45 37 39 38
38 31 13 11 12 16 18 15 18 21 25 28 28 26 27 26 26 26 31 39 46 42 47 50 45 49 24 18 36 38 24 31 34 39 48 32 23 22 32 42 38 36 36 35 39
73 30 32 20 11 11 14 17 16 16 18 18 22 26 25 26 28 29 28 28 34 40 51 66 65 71 46 34 30 22 13 25 22 20 19 31 6 14 16 31 28 30 34 35 38

GFSSW_700_rhum_132.txt.gz
RH
87 89 94 89 85 80 72 70 67 51 24 40 98 99 99 95 89 80 71 45 29 17 13 11 9 9 8 8 10 12 18 31 36 36 31 30 30 26 21 16 22 24 20 18 16
98 98 98 95 89 89 78 67 64 55 31 58 92 99 99 97 86 75 69 54 36 20 14 12 10 9 8 9 13 22 25 29 30 33 30 30 26 23 18 14 15 16 13 14 16
98 95 97 97 98 98 95 97 100 61 81 74 100 98 99 100 98 80 69 59 40 23 15 13 11 10 9 9 13 20 21 27 26 25 26 24 23 22 19 18 17 18 18 18 17
96 94 94 83 81 80 97 96 99 90 79 97 99 98 99 100 90 89 79 64 46 29 16 14 12 10 9 10 11 20 19 23 24 24 24 23 21 19 18 17 16 14 14 13 12
94 91 90 85 75 78 82 77 76 85 89 83 93 99 98 99 89 96 82 69 50 33 19 15 14 11 10 10 10 12 13 15 23 25 24 22 20 18 16 15 12 10 9 10 10
74 73 86 88 81 88 83 79 85 91 98 95 95 97 90 97 99 97 82 70 56 39 22 16 15 14 12 12 11 11 11 12 19 23 23 22 20 15 14 11 10 10 10 10 10
75 63 47 73 89 85 90 98 91 83 91 94 98 94 89 99 94 94 83 72 60 48 32 22 18 17 16 14 14 19 22 25 27 28 26 22 17 12 10 9 9 11 12 13 13
52 49 48 50 52 83 87 92 99 99 96 96 89 96 88 92 88 85 87 76 64 56 46 30 26 34 28 32 31 35 35 34 29 24 19 17 13 12 12 12 12 13 13 13 13
50 46 44 40 60 72 80 94 99 99 98 96 98 99 86 81 97 95 91 75 65 57 50 46 45 44 42 38 36 36 24 23 18 18 20 19 14 14 13 13 13 14 13 14 14
37 39 38 39 59 74 89 99 99 98 98 96 97 98 98 98 99 91 75 67 60 54 49 46 44 42 37 31 24 20 18 19 28 29 23 20 15 19 16 18 16 15 15 16 16
30 32 38 63 70 70 83 86 86 97 94 93 98 94 99 98 97 89 83 75 65 54 50 46 42 37 30 26 25 27 31 37 37 33 26 22 22 20 22 22 21 19 18 16 14
52 47 61 66 72 90 83 75 92 90 100 98 97 96 98 97 96 91 80 72 68 58 52 46 41 34 31 32 42 43 43 40 36 29 29 27 25 24 22 19 16 14 13 15 19
52 57 59 60 61 68 65 72 84 83 94 100 98 96 96 96 85 77 69 64 53 47 44 37 40 40 37 36 33 29 29 27 30 27 25 23 22 17 14 10 9 11 19 29 34
37 47 47 45 46 50 53 53 62 69 74 86 90 97 84 78 80 70 62 55 55 53 59 50 46 45 41 36 32 33 38 44 49 33 35 27 44 12 12 12 17 27 40 45 48
26 32 38 41 41 41 40 46 49 53 86 71 77 83 76 67 72 68 65 60 57 54 51 44 43 38 34 38 29 32 36 32 36 60 50 45 66 24 24 32 40 47 54 61 57
12 21 29 32 36 39 42 42 48 52 87 61 64 66 65 63 59 56 53 52 47 38 33 35 31 29 31 29 26 26 27 41 71 76 84 67 74 37 41 44 51 58 61 62 60
20 12 20 23 27 29 34 38 40 75 67 46 45 46 47 46 43 40 38 37 41 43 36 28 26 24 23 25 30 34 43 72 84 88 88 80 90 37 41 50 54 59 59 42 43
27 20 12 18 26 29 34 32 40 52 45 38 36 36 40 42 46 44 42 30 35 41 43 55 62 36 44 46 61 85 73 81 88 95 87 71 79 39 43 55 55 41 35 30 29
27 28 20 12 19 21 24 28 35 35 33 32 31 40 44 50 55 49 41 38 35 34 46 70 64 53 54 61 66 81 86 86 94 95 96 72 59 46 52 53 52 46 58 47 36
17 27 27 22 15 13 12 24 34 36 34 40 47 44 43 51 57 60 57 52 47 44 46 52 70 66 66 70 71 80 84 92 94 94 97 74 70 51 56 50 55 59 61 57 40
10 15 26 27 24 22 20 24 28 32 39 39 36 45 41 44 55 58 60 64 60 53 59 69 65 76 78 66 71 80 88 88 88 95 93 97 57 43 52 49 48 52 55 55 42
8 13 15 26 28 28 30 36 42 43 46 50 54 50 55 56 56 62 64 66 65 68 74 68 94 85 67 87 94 99 98 87 80 86 90 96 64 41 52 45 51 46 46 47 40
25 9 12 15 23 32 35 37 39 45 49 51 52 54 56 56 59 62 59 52 50 53 55 60 71 68 81 79 84 91 82 81 88 94 95 96 55 38 40 41 40 44 50 52 39
40 15 10 13 16 20 29 36 38 40 41 44 45 48 50 51 50 41 35 34 32 35 46 57 56 48 41 42 55 70 58 71 81 96 87 80 39 31 33 36 30 33 38 42 38
63 28 21 12 14 18 20 22 29 27 30 29 29 29 32 37 38 45 40 37 34 38 42 43 34 35 32 32 37 36 34 40 59 56 90 26 30 9 12 18 26 30 35 32 30
70 59 30 24 12 12 17 20 19 21 22 21 19 19 20 18 21 23 29 35 39 39 45 51 50 47 29 21 30 34 28 38 36 42 48 28 15 5 13 15 13 16 28 29 31
67 74 62 30 27 17 13 15 19 22 21 20 23 24 22 25 27 27 26 26 31 34 47 65 65 64 48 37 36 23 8 8 11 12 14 25 5 9 8 9 11 14 18 20 25